Weather History for Shawnee, OK

Change the Weather History Date:

Sunday, April 7, 2013

  Actual Average (KTIK) Record (KTIK)
Temperature  
Mean Temperature 64 °F -  
Max Temperature 68 °F 65 °F 89 °F (2011)
Min Temperature 59 °F 46 °F 28 °F (2009)
Degree Days  
Heating Degree Days 2    
Growing Degree Days 14 (Base 50)    
Moisture  
Dew Point 62 °F    
Average Humidity 91    
Maximum Humidity 100    
Minimum Humidity 77    
Precipitation  
Precipitation 0.00 in - - ()
Sea Level Pressure  
Sea Level Pressure 29.82 in    
Wind  
Wind Speed 10 mph (SSE)    
Max Wind Speed 22 mph    
Max Gust Speed 32 mph    
Visibility 10 miles    
Events      
Averages and records for this station are not official NWS values.
T = Trace of Precipitation, MM = Missing Value Source: NWS Daily Summary

Daily Weather History Graph

Daily Weather History Graph

Search for Another Location

Airport:

Trip Planner

Search our weather history database for the weather conditions in past years. The results will help you decide how hot, cold, wet, or windy it might be!

Date:

Astronomy

Apr. 07, 2013 Rise Set
Actual Time 7:05 AM CDT 7:54 PM CDT
Civil Twilight 6:39 AM CDT 8:20 PM CDT
Nautical Twilight 6:09 AM CDT 8:50 PM CDT
Astronomical Twilight 5:38 AM CDT 9:22 PM CDT
Moon 5:18 AM CDT (4/7) 5:32 PM CDT (4/7)
Length of Visible Light 13h 40m
Length of Day
12h 48m
Waning Crescent, 8% of the Moon is Illuminated
Apr 7
Waning Crescent
Apr 10
New
Apr 18
First Quarter
Apr 25
Full
May 2
Last Quarter

Hourly Weather History & Observations

Time (CDT) Temp. Dew Point Humidity Pressure Visibility Wind Dir Wind Speed Gust Speed Precip Events Conditions
12:15 AM 62.6 °F 55.4 °F 77% 29.90 in 10.0 mi South 5.8 mph - N/A   Clear
12:55 AM 62.6 °F 57.2 °F 82% 29.90 in 10.0 mi SSE 5.8 mph - N/A   Clear
1:15 AM 62.6 °F 59.0 °F 88% 29.90 in 10.0 mi SSE 6.9 mph - N/A   Clear
1:35 AM 62.6 °F 59.0 °F 88% 29.90 in 10.0 mi South 5.8 mph - N/A   Clear
1:55 AM 60.8 °F 59.0 °F 94% 29.89 in 10.0 mi SSE 6.9 mph - N/A   Clear
2:15 AM 60.8 °F 59.0 °F 94% 29.87 in 10.0 mi SSE 6.9 mph - N/A   Clear
2:35 AM 60.8 °F 59.0 °F 94% 29.87 in 10.0 mi SSE 5.8 mph - N/A   Clear
2:55 AM 60.8 °F 59.0 °F 94% 29.87 in 10.0 mi SSE 5.8 mph - N/A   Clear
3:15 AM 60.8 °F 59.0 °F 94% 29.87 in 10.0 mi SSE 5.8 mph - N/A   Clear
3:35 AM 60.8 °F 60.8 °F 100% 29.87 in 10.0 mi SSE 5.8 mph - N/A   Clear
3:55 AM 59.0 °F 59.0 °F 100% 29.86 in 10.0 mi SE 5.8 mph - N/A   Clear
4:15 AM 59.0 °F 59.0 °F 100% 29.86 in 10.0 mi SE 5.8 mph - N/A   Clear
4:35 AM 59.0 °F 59.0 °F 100% 29.86 in 10.0 mi SE 5.8 mph - N/A   Clear
4:55 AM 59.0 °F 59.0 °F 100% 29.86 in 10.0 mi SE 4.6 mph - N/A   Clear
5:15 AM 59.0 °F 59.0 °F 100% 29.86 in 10.0 mi SE 6.9 mph - N/A   Clear
5:35 AM 59.0 °F 59.0 °F 100% 29.86 in 10.0 mi SSE 5.8 mph - N/A   Clear
5:55 AM 59.0 °F 59.0 °F 100% 29.86 in 10.0 mi SSE 8.1 mph - N/A   Clear
6:15 AM 59.0 °F 59.0 °F 100% 29.86 in 10.0 mi SSE 8.1 mph - N/A   Clear
6:35 AM 59.0 °F 59.0 °F 100% 29.86 in 10.0 mi SSE 8.1 mph - N/A   Clear
7:15 AM 59.0 °F 59.0 °F 100% 29.86 in 10.0 mi SSE 9.2 mph - N/A   Clear
7:35 AM 59.0 °F 59.0 °F 100% 29.86 in 10.0 mi SSE 8.1 mph - N/A   Clear
7:55 AM 59.0 °F 59.0 °F 100% 29.87 in 10.0 mi SSE 8.1 mph - N/A   Scattered Clouds
8:15 AM 60.8 °F 60.8 °F 100% 29.87 in 10.0 mi SSE 11.5 mph - N/A   Mostly Cloudy
8:35 AM 60.8 °F 60.8 °F 100% 29.87 in 10.0 mi South 13.8 mph 18.4 mph N/A   Overcast
9:15 AM 62.6 °F 60.8 °F 94% 29.89 in 10.0 mi South 11.5 mph 16.1 mph N/A   Overcast
9:35 AM 62.6 °F 60.8 °F 94% 29.89 in 10.0 mi South 11.5 mph - N/A   Overcast
10:15 AM 62.6 °F 62.6 °F 100% 29.87 in 10.0 mi South 15.0 mph 19.6 mph N/A   Overcast
10:35 AM 62.6 °F 60.8 °F 94% 29.89 in 10.0 mi South 15.0 mph - N/A   Overcast
10:55 AM 62.6 °F 62.6 °F 100% 29.89 in 10.0 mi South 11.5 mph 18.4 mph N/A   Overcast
11:15 AM 64.4 °F 62.6 °F 94% 29.88 in 10.0 mi SSE 11.5 mph - N/A   Overcast
11:35 AM 64.4 °F 62.6 °F 94% 29.88 in 10.0 mi South 11.5 mph - N/A   Overcast
11:55 AM 66.2 °F 62.6 °F 88% 29.87 in 10.0 mi SSE 15.0 mph 19.6 mph N/A   Overcast
12:15 PM 66.2 °F 62.6 °F 88% 29.86 in 10.0 mi South 12.7 mph 20.7 mph N/A   Overcast
12:35 PM 66.2 °F 62.6 °F 88% 29.85 in 10.0 mi SSE 15.0 mph 19.6 mph N/A   Overcast
12:55 PM 66.2 °F 62.6 °F 88% 29.84 in 10.0 mi SSE 17.3 mph 20.7 mph N/A   Overcast
1:15 PM 66.2 °F 62.6 °F 88% 29.82 in 10.0 mi SSE 19.6 mph 25.3 mph N/A   Overcast
1:55 PM 68.0 °F 64.4 °F 88% 29.80 in 10.0 mi South 16.1 mph 24.2 mph N/A   Overcast
2:15 PM 68.0 °F 64.4 °F 88% 29.80 in 10.0 mi SSE 17.3 mph 23.0 mph N/A   Overcast
2:35 PM 68.0 °F 64.4 °F 88% 29.79 in 10.0 mi SSE 15.0 mph 21.9 mph N/A   Overcast
2:55 PM 68.0 °F 64.4 °F 88% 29.78 in 10.0 mi SSE 12.7 mph 21.9 mph N/A   Overcast
3:15 PM 68.0 °F 64.4 °F 88% 29.77 in 10.0 mi SSE 16.1 mph 24.2 mph N/A   Overcast
3:35 PM 68.0 °F 62.6 °F 83% 29.75 in 10.0 mi SSE 20.7 mph 27.6 mph N/A   Overcast
3:55 PM 68.0 °F 62.6 °F 83% 29.75 in 10.0 mi South 21.9 mph 29.9 mph N/A   Overcast
4:15 PM 68.0 °F 62.6 °F 83% 29.75 in 10.0 mi South 17.3 mph 27.6 mph N/A   Overcast
4:35 PM 68.0 °F 62.6 °F 83% 29.74 in 10.0 mi South 16.1 mph 25.3 mph N/A   Overcast
4:55 PM 68.0 °F 62.6 °F 83% 29.74 in 10.0 mi South 15.0 mph 24.2 mph N/A   Overcast
5:15 PM 68.0 °F 62.6 °F 83% 29.74 in 10.0 mi South 16.1 mph 32.2 mph N/A   Overcast
5:35 PM 68.0 °F 62.6 °F 83% 29.74 in 10.0 mi South 20.7 mph 26.5 mph N/A   Overcast
5:55 PM 68.0 °F 64.4 °F 88% 29.73 in 10.0 mi South 18.4 mph 25.3 mph N/A   Overcast
6:15 PM 68.0 °F 64.4 °F 88% 29.73 in 10.0 mi South 16.1 mph 19.6 mph N/A   Overcast
6:35 PM 68.0 °F 64.4 °F 88% 29.74 in 10.0 mi South 12.7 mph 19.6 mph N/A   Overcast
6:55 PM 68.0 °F 64.4 °F 88% 29.73 in 10.0 mi South 15.0 mph 19.6 mph N/A   Overcast
7:15 PM 68.0 °F 62.6 °F 83% 29.72 in 10.0 mi South 12.7 mph 20.7 mph N/A   Overcast
7:35 PM 68.0 °F 64.4 °F 88% 29.72 in 10.0 mi South 12.7 mph - N/A   Overcast
7:55 PM 68.0 °F 64.4 °F 88% 29.72 in 10.0 mi South 15.0 mph 20.7 mph N/A   Overcast
8:15 PM 68.0 °F 64.4 °F 88% 29.72 in 10.0 mi South 12.7 mph 18.4 mph N/A   Overcast
8:35 PM 68.0 °F 62.6 °F 83% 29.73 in 10.0 mi South 16.1 mph 20.7 mph N/A   Overcast
8:55 PM 68.0 °F 62.6 °F 83% 29.73 in 10.0 mi South 17.3 mph 20.7 mph N/A   Overcast
9:15 PM 68.0 °F 62.6 °F 83% 29.73 in 10.0 mi South 12.7 mph - N/A   Overcast
9:35 PM 68.0 °F 64.4 °F 88% 29.73 in 10.0 mi South 13.8 mph 21.9 mph N/A   Mostly Cloudy
10:35 PM 68.0 °F 64.4 °F 88% 29.75 in 10.0 mi South 10.4 mph - N/A   Overcast
10:55 PM 68.0 °F 64.4 °F 88% 29.75 in 10.0 mi South 11.5 mph 17.3 mph N/A   Overcast
11:15 PM 68.0 °F 64.4 °F 88% 29.74 in 10.0 mi SSE 13.8 mph 20.7 mph N/A   Overcast
11:35 PM 68.0 °F 64.4 °F 88% 29.74 in 10.0 mi SSE 12.7 mph 17.3 mph N/A   Overcast